Regional Weather Roundup
Issued by NWS

Home | Current Version | Previous Version | Text Only | Print | Product List | Glossary Off
Versions: 1 2 3 4 5 6 7 8 9 10 11 12 13 14 15 16 17 18 19 20 21 22 23 24 25 26 27 28 29 30 31 32 33 34 35 36 37 38 39 40 41 42 43 44 45 46 47 48 49 50

000
ASUS43 KLMK 282002
RWRKY
KENTUCKY REGIONAL WEATHER ROUNDUP
NATIONAL WEATHER SERVICE LOUISVILLE KY
400 PM EDT SUN MAY 28 2017

NOTE "FAIR" INDICATES FEW OR NO CLOUDS BELOW 12,000 FEET
WITH NO SIGNIFICANT WEATHER AND/OR OBSTRUCTIONS TO VISIBILITY.

KYZ001>023-026-027-061>063-070>075-282100-
WESTERN AND SOUTH CENTRAL KENTUCKY

CITY           SKY/WX    TMP DP  RH WIND       PRES   REMARKS
PADUCAH        CLOUDY    75  63  66 SW15      29.86F
HENDERSON      PTSUNNY   76  64  66 W12       29.84S
OWENSBORO      PTSUNNY   76  64  66 W14G22    29.84F
HOPKINSVILLE   CLOUDY    75  64  67 W14       29.88S
BOWLING GREEN  PTSUNNY   77  62  59 W14G25    29.87S
GLASGOW        NOT AVBL
$$

KYZ024-025-028>034-038-045-046-053-282100-
NORTH CENTRAL KENTUCKY

CITY           SKY/WX    TMP DP  RH WIND       PRES   REMARKS
LOUISVILLE/SDF CLOUDY    73  62  68 W15G24    29.83R
LOUISVILLE/LOU CLOUDY    73  64  73 SW12      29.83R
FORT KNOX      CLOUDY    70  63  78 SW14      29.84R
$$

KYZ035>037-039>044-047>052-055>060-089>105-282100-
NORTHEAST KENTUCKY

CITY           SKY/WX    TMP DP  RH WIND       PRES   REMARKS
LEXINGTON      PTSUNNY   75  61  61 SW14G24   29.84R
COVINGTON      CLOUDY    73  63  70 W9        29.80S
FRANKFORT      PTSUNNY   75  60  59 SW12      29.82R
$$

KYZ054-064>069-076>088-106>120-282100-
SOUTHEAST KENTUCKY

CITY           SKY/WX    TMP DP  RH WIND       PRES   REMARKS
JACKSON        CLOUDY    74  64  71 VRB3      29.87S
LONDON         CLOUDY    73  59  61 W14       29.90R
SOMERSET       CLOUDY    70  59  68 W10       29.90S
MIDDLESBORO    CLOUDY    76  62  60 SW5       29.89S
MONTICELLO     CLOUDY    76  63  64 W14G24    29.91F
$$





USA.gov is the U.S. government's official web portal to all federal, state and local government web resources and services.